Location: *
(32.8140°S, 174.6161°E)
Time: 23:48:04
(UTC+00:00)

Cosmos 2237 Rocket - Pass Details

Date: 10 December 2019
Orbit: 836 x 849 km, 71.0° (Epoch: 24 January)

Event Time Altitude Azimuth Distance (km) Brightness Sun altitude
Rises 16:34:20 0° 7° (N) 3,371 5.1 -6.7°
Reaches altitude 10° 16:37:01 10° 18° (NNE) 2,445 4.5 -6.2°
Maximum altitude 16:41:51 30° 77° (ENE) 1,456 4.0 -5.3°
Drops below altitude 10° 16:46:43 10° 137° (SE) 2,472 6.2 -4.4°
Sets 16:49:26 0° 147° (SSE) 3,415 6.7 -4.0°
